Location: C�an Torras
(41.5052°N, 1.9280°E)
Time: 18:16:04
(UTC+00:00)

Okean-O - Pass Details

Date: 20 January 2021
Orbit: 638 x 641 km, 98.2° (Epoch: 02 March)

Event Time Altitude Azimuth Distance (km) Brightness Sun altitude
Rises 18:05:29 0° 150° (SSE) 2,933 5.9 -13.4°
Reaches altitude 10° 18:07:45 10° 144° (SE) 2,028 5.0 -13.8°
Maximum altitude 18:11:57 45° 72° (ENE) 871 2.9 -14.6°
Drops below altitude 10° 18:16:12 10° 359° (N) 2,043 5.1 -15.4°
Sets 18:18:28 0° 354° (N) 2,957 6.0 -15.8°
